Theta_e
339 341 341 342 344 344 344 344 344 344 344 345 344 344 345 346 347 348 348 348 348 348 348 348 348 348 348 349 348 348 348 348 348 347 346 343 339 336 335 336 337 337 338 341 342 342 341 342 343 342 341 340 339 338 338 334 331 331 332 330 325 323 325
339 340 340 341 343 343 344 344 344 344 344 344 345 344 345 346 347 347 347 347 348 348 348 348 348 348 348 348 348 349 349 348 348 348 346 344 341 339 336 335 336 338 338 339 340 341 342 342 342 342 341 341 338 337 337 333 329 331 332 330 324 321 323
338 339 340 340 342 343 343 344 344 344 344 344 345 345 345 346 346 347 347 347 348 348 349 349 348 348 348 348 349 348 349 349 348 348 346 344 342 340 338 336 335 337 338 339 340 341 342 341 342 342 341 341 339 337 336 334 329 329 331 331 326 321 320
338 339 340 340 341 342 343 344 344 344 345 344 345 345 345 346 346 347 346 347 348 348 349 349 348 349 348 348 349 349 349 349 349 348 346 343 340 339 339 337 336 336 338 340 340 341 341 342 342 342 342 341 339 337 337 334 330 328 330 330 327 323 320
339 339 340 340 340 341 342 343 343 344 344 344 345 345 345 346 346 347 347 348 348 348 348 348 348 349 349 348 349 349 348 349 349 349 347 345 342 340 339 338 336 336 338 340 341 341 342 342 342 342 342 342 341 338 337 336 332 329 330 330 328 325 322
340 340 340 340 340 341 342 343 343 344 344 344 345 345 345 347 347 347 348 348 348 348 348 349 349 349 349 349 349 349 349 349 349 349 348 346 343 341 338 337 337 337 338 339 340 341 342 342 342 342 342 341 340 338 337 336 334 331 330 330 328 325 323
340 341 341 340 340 341 341 342 343 343 344 344 345 345 346 347 347 348 348 348 349 349 349 350 349 350 350 350 350 349 349 349 349 349 349 348 346 342 338 337 337 337 338 339 341 341 342 342 341 342 342 341 339 337 336 337 336 333 330 329 328 325 323
340 341 341 341 341 341 341 341 342 343 343 344 345 346 346 347 348 348 348 349 349 349 350 349 350 350 350 350 350 350 349 350 349 349 349 349 348 345 341 338 337 337 338 339 340 341 341 341 341 341 341 341 339 337 335 336 337 336 332 330 328 324 321
340 341 341 341 341 341 342 341 342 343 343 344 345 346 346 347 348 348 348 349 349 350 349 349 350 350 350 350 350 350 350 350 350 350 350 349 348 346 342 338 338 338 338 339 340 341 341 341 341 340 341 342 341 339 336 335 337 338 335 331 329 324 320
341 340 340 341 341 342 342 342 342 343 342 344 344 345 346 346 347 348 348 349 349 349 349 350 351 351 351 351 350 350 350 350 350 350 351 350 349 346 342 339 338 338 338 339 339 340 341 342 342 341 341 342 342 341 338 334 335 338 337 333 331 327 322
340 340 340 341 341 342 342 342 343 343 343 343 344 344 345 346 347 347 348 349 348 348 349 350 351 352 352 351 350 351 351 350 351 351 351 351 350 347 344 341 340 338 338 339 339 340 341 342 343 342 341 341 342 342 339 335 334 336 337 335 332 330 326
338 340 340 341 342 341 341 342 343 343 344 343 344 344 345 345 346 347 347 348 348 348 349 350 351 352 352 351 351 351 351 351 351 351 352 351 350 349 347 344 342 340 338 338 339 339 340 341 342 343 341 341 341 343 341 338 335 335 336 336 334 332 331
339 340 340 341 342 342 342 342 342 343 344 344 344 344 344 345 345 346 347 347 348 348 349 350 351 351 352 352 351 351 351 351 351 351 352 352 352 351 350 347 345 341 339 338 338 338 339 340 341 342 341 341 341 343 343 341 338 337 338 338 336 334 333
338 339 339 340 341 342 342 342 342 343 343 344 344 345 344 345 345 346 346 347 347 349 350 350 351 351 352 352 352 352 351 351 351 352 353 353 353 352 351 350 347 344 341 339 338 338 338 339 340 341 342 342 342 342 343 343 340 339 339 339 339 337 336
336 337 339 339 340 342 342 342 343 343 343 344 344 345 345 345 346 346 347 347 348 349 350 350 350 351 351 351 352 351 351 351 352 352 353 353 354 353 352 352 350 347 345 342 338 337 338 339 340 341 342 342 342 343 343 343 341 339 339 339 340 339 338
335 336 338 339 340 341 342 343 343 343 343 344 344 344 346 346 347 347 347 348 349 349 350 350 350 351 351 351 351 351 351 352 352 353 353 354 354 354 354 353 352 350 348 344 339 337 337 338 340 341 342 342 342 343 342 342 341 340 339 340 342 341 341
335 336 337 339 340 340 341 343 343 343 344 344 344 345 346 346 347 347 347 348 349 349 350 351 351 351 351 350 350 351 352 353 353 354 354 354 354 355 355 354 353 352 350 347 344 340 338 338 339 340 341 342 342 343 342 341 340 340 340 341 343 344 343
335 336 337 339 340 341 341 342 342 343 343 343 344 345 345 346 346 347 348 348 349 350 351 351 352 351 351 351 352 353 354 354 354 355 355 355 355 355 356 356 355 353 352 351 347 343 340 338 338 338 339 342 343 343 342 341 340 341 342 343 344 345 345
336 336 338 339 340 340 342 342 342 343 343 343 344 344 345 346 346 346 347 347 348 350 351 352 352 352 352 353 353 354 355 355 355 355 355 355 356 356 357 357 356 354 353 351 350 347 343 339 337 337 338 341 342 342 341 341 342 342 343 344 345 346 346
335 337 337 338 341 341 341 342 342 342 343 343 343 344 345 346 346 346 346 348 350 351 351 352 352 353 353 354 354 355 355 356 356 355 356 356 356 357 357 357 357 355 354 353 352 350 344 339 337 336 337 339 340 340 341 341 343 344 344 346 346 346 346
334 337 337 337 339 340 341 342 342 342 343 343 343 344 344 345 346 347 347 349 350 351 351 352 352 353 354 354 355 355 355 356 356 356 356 357 358 358 358 358 357 356 355 355 353 349 344 340 338 336 336 338 338 340 341 342 344 345 345 346 346 346 346
336 338 339 339 338 338 339 341 341 342 343 343 343 344 344 345 346 347 347 349 350 351 351 352 352 353 354 355 356 356 356 356 356 356 357 358 359 359 358 358 358 357 356 355 353 350 347 344 341 338 338 337 338 340 341 343 345 346 346 347 347 346 347
338 339 339 336 337 338 338 337 339 340 340 341 343 343 344 345 345 346 346 348 349 350 350 351 352 352 353 354 355 356 356 356 356 356 358 359 359 359 358 358 358 357 357 356 354 352 349 346 344 342 340 339 340 340 342 345 347 347 347 348 348 348 349
334 338 338 336 338 339 336 335 336 337 338 339 341 341 343 344 345 345 347 347 349 349 350 351 352 352 352 353 353 354 355 355 355 356 357 359 359 359 359 358 358 357 357 356 355 352 349 347 345 344 341 341 340 340 343 347 347 346 347 348 348 349 350
334 336 339 339 340 339 337 338 338 337 340 341 341 342 343 344 345 346 347 348 348 349 350 350 350 350 351 351 351 353 353 355 356 356 357 358 359 358 359 358 358 357 357 357 356 354 351 349 348 346 343 342 341 342 345 347 347 346 348 349 349 351 352
337 335 335 334 332 333 337 342 342 341 340 340 340 342 343 344 345 346 346 347 348 349 349 347 347 347 348 348 350 352 353 355 357 356 356 357 357 358 358 358 358 358 358 357 357 356 354 352 350 348 346 344 343 344 345 346 346 347 349 350 352 353 354
344 341 340 336 333 332 334 338 342 344 342 341 341 342 343 344 345 345 346 347 348 348 346 343 342 344 345 347 351 353 355 356 357 357 356 355 356 357 357 358 358 358 358 358 357 357 356 353 352 351 349 347 346 346 346 347 347 349 351 353 354 355 355
347 343 341 338 336 335 334 334 338 341 342 344 344 345 345 345 345 344 345 346 345 344 341 340 341 342 344 348 352 354 356 357 357 358 358 356 356 357 358 357 358 358 358 358 358 358 356 355 354 353 352 350 349 349 349 349 350 352 353 355 356 357 356
346 342 339 338 339 338 336 336 336 336 338 339 340 343 346 347 347 346 345 345 344 344 344 343 343 346 349 352 353 355 356 356 357 358 358 359 358 357 358 358 358 359 359 359 359 358 357 356 356 355 353 352 352 352 352 352 353 354 356 357 357 356 355
348 348 345 344 344 340 336 337 337 336 336 335 335 337 340 344 348 349 348 347 346 346 347 347 347 350 352 353 354 355 355 356 357 357 358 359 359 358 358 359 359 359 360 359 359 359 358 357 356 355 355 354 354 354 355 355 356 357 357 357 356 354 353
347 348 349 348 348 345 341 340 340 338 336 335 335 335 338 341 346 350 351 351 350 349 349 349 350 351 353 353 355 356 356 356 356 357 357 359 359 360 359 359 360 360 360 360 359 359 358 358 357 356 356 355 355 355 356 357 358 358 357 355 354 353 351
346 346 347 349 352 353 352 349 347 345 342 339 336 335 337 341 346 350 351 351 352 353 352 352 353 353 352 353 354 354 355 356 356 356 356 357 359 360 360 360 360 360 360 360 360 359 359 358 358 357 357 357 357 357 357 358 358 357 355 353 353 351 348
349 349 348 349 351 353 353 354 354 352 350 349 348 345 344 346 350 352 353 353 353 354 354 356 357 357 356 355 354 353 354 354 354 355 355 356 358 359 360 361 361 360 360 360 359 359 359 358 358 358 357 358 358 358 358 358 356 355 354 353 352 349 344
349 350 351 352 353 353 354 355 354 354 353 352 352 352 352 354 355 357 357 358 358 358 358 358 358 358 359 358 357 356 356 355 355 355 356 356 357 358 360 361 361 360 361 360 360 359 359 358 358 358 357 358 358 358 357 356 355 355 354 352 349 345 342
348 349 349 351 352 353 354 354 354 355 355 354 353 353 352 353 355 355 357 358 359 359 360 360 360 360 360 360 360 359 358 357 357 356 356 355 356 357 359 360 361 361 361 359 360 360 358 358 358 356 355 356 357 356 356 356 356 355 352 349 345 342 340
347 347 347 347 347 349 349 351 352 354 355 356 356 356 355 353 353 353 353 354 355 356 357 357 357 357 358 359 360 360 359 359 358 357 356 355 355 356 359 360 361 361 361 359 360 360 360 359 357 354 354 356 355 354 355 355 355 352 348 344 342 341 341
348 347 347 346 346 347 346 347 349 350 351 353 354 356 357 357 356 355 355 354 353 352 353 356 358 357 357 360 361 362 361 360 360 358 357 355 355 356 358 360 361 361 361 360 359 359 359 358 356 356 356 355 355 354 353 353 350 347 343 342 341 340 340
348 348 348 347 348 348 347 347 347 347 347 347 348 350 352 352 351 351 350 348 348 349 353 358 361 361 360 360 361 362 362 362 360 360 358 358 359 358 358 359 360 360 358 358 358 359 358 357 357 357 356 355 354 353 350 347 344 343 341 340 340 339 339
Wind_Speed
45 44 47 48 49 51 53 55 56 56 57 57 58 58 58 58 57 57 57 57 56 55 53 51 50 49 48 46 45 44 42 40 39 40 40 39 37 36 35 35 34 33 32 30 28 27 25 25 24 24 23 22 22 22 21 20 18 17 16 16 16 16 16
40 43 46 47 49 51 53 55 56 57 57 58 58 58 58 59 59 58 58 58 57 56 55 53 52 50 49 47 46 45 44 42 40 39 39 40 39 37 36 36 35 34 32 31 29 28 26 25 24 24 24 23 22 22 21 21 19 18 18 17 17 17 18
39 44 46 48 51 53 54 55 56 57 58 58 58 58 59 60 60 60 59 58 58 57 56 55 53 51 50 48 47 47 45 44 42 40 38 39 39 39 38 37 37 35 33 31 30 29 28 26 25 25 25 24 23 22 22 21 20 20 19 19 18 18 19
41 46 49 51 52 53 54 55 56 57 58 58 59 59 60 61 61 60 59 58 58 58 57 56 55 53 51 50 49 48 46 45 44 41 38 37 38 39 39 38 38 38 36 33 31 30 29 28 27 26 26 25 24 24 23 22 21 21 21 21 20 20 19
40 45 48 49 50 51 53 56 57 57 58 59 59 60 60 61 60 60 60 59 58 58 57 56 55 54 53 51 50 48 47 45 44 42 39 37 37 39 40 40 39 39 38 35 33 31 31 30 29 28 27 27 26 25 25 24 23 22 22 22 22 22 21
39 44 46 47 49 51 54 56 57 58 59 59 60 60 60 59 58 59 60 59 59 58 57 56 56 55 55 53 51 49 48 46 44 43 41 38 38 39 41 41 41 40 39 37 36 34 33 31 30 29 29 28 28 27 27 26 25 24 24 24 24 23 23
40 45 48 49 49 51 54 57 58 59 60 60 60 59 58 57 57 58 59 59 59 59 58 58 58 57 56 55 53 51 50 48 46 44 42 40 39 40 41 41 42 41 40 39 38 36 35 34 32 31 30 30 29 29 29 28 27 26 25 25 25 25 24
42 46 50 50 50 51 54 57 58 58 59 58 57 56 55 55 56 57 58 59 59 58 58 59 59 58 57 55 54 53 50 48 46 44 43 41 41 41 41 42 42 42 42 41 40 38 37 36 35 33 32 32 31 30 30 30 29 28 27 26 26 26 26
44 46 48 48 50 52 53 57 58 57 57 56 55 54 54 54 55 56 58 58 58 58 59 59 59 58 57 55 55 53 51 49 47 45 44 43 42 41 41 42 42 42 43 42 41 40 39 38 37 35 34 33 32 32 31 32 32 31 29 28 27 27 27
41 43 46 47 48 50 51 54 54 53 53 53 54 54 54 54 55 56 57 58 58 59 59 58 58 57 57 56 55 53 51 50 48 47 45 44 43 42 41 42 42 43 43 42 42 41 40 39 38 37 36 35 34 33 33 33 33 33 32 30 28 28 28
35 39 43 44 45 46 47 49 50 51 52 52 54 54 54 55 56 56 56 57 59 59 58 57 57 56 57 56 55 54 53 51 50 48 47 45 44 43 41 41 42 43 43 43 43 42 41 40 39 39 38 37 36 35 34 34 34 34 33 31 30 29 29
32 36 38 38 41 44 46 47 49 51 52 54 55 55 55 56 56 56 56 57 58 58 58 57 56 56 56 56 55 55 54 53 51 50 48 46 45 43 42 41 42 42 43 43 43 42 42 41 41 40 39 39 38 37 36 35 35 35 34 33 31 30 31
36 38 38 36 39 43 44 46 48 50 53 55 55 56 56 56 56 56 56 57 57 57 57 57 56 56 56 56 55 55 54 53 52 50 48 46 44 44 43 42 42 42 42 43 42 42 42 42 42 41 40 40 40 39 38 37 36 36 36 34 33 32 32
35 38 38 37 39 42 42 45 48 50 52 54 55 55 55 56 56 57 57 57 57 56 56 56 56 56 55 55 56 56 55 54 52 51 49 46 44 44 43 43 43 42 42 43 43 43 42 42 42 41 41 41 41 41 39 39 38 38 37 36 35 34 33
32 36 39 40 42 43 43 45 48 50 51 53 53 54 54 55 56 55 55 55 55 55 56 56 56 56 56 56 56 56 55 54 53 51 50 48 46 45 44 44 43 43 43 43 43 43 42 42 42 42 42 42 42 42 41 41 40 40 39 38 37 35 34
30 35 37 40 43 44 45 46 48 50 52 52 53 54 54 55 56 56 56 55 55 55 56 55 56 56 56 56 56 56 55 54 53 52 51 50 48 47 45 44 44 44 44 43 43 43 42 42 42 43 43 43 43 43 43 43 42 41 40 40 39 37 36
29 33 34 37 41 44 45 47 48 49 50 51 54 55 55 55 56 56 56 55 55 55 55 54 55 56 57 57 56 55 55 54 53 52 52 51 50 49 47 45 44 44 44 44 44 43 43 43 43 43 43 43 43 44 44 44 43 42 41 41 40 38 37
25 30 32 34 38 42 44 47 50 51 51 53 54 54 55 56 56 56 55 55 55 55 54 53 54 56 56 56 55 55 54 54 53 53 52 52 51 50 48 46 45 45 45 45 45 44 43 43 44 43 43 43 44 44 44 44 43 43 42 41 40 38 37
23 27 31 33 36 40 43 46 50 52 53 54 54 55 56 56 56 56 56 56 56 54 52 53 54 55 56 56 55 54 54 54 53 53 52 52 51 50 49 48 47 46 46 46 46 45 44 44 43 43 44 44 45 44 44 44 43 43 42 41 40 38 36
23 25 30 33 35 38 41 44 48 50 52 53 55 56 56 56 56 57 55 54 53 52 52 52 53 54 55 55 55 54 54 53 53 53 52 52 52 51 50 50 48 47 47 46 46 46 45 45 44 43 44 44 44 43 43 43 43 43 42 41 39 36 35
24 25 29 34 36 38 41 43 45 47 48 50 53 55 54 54 55 54 52 51 51 51 52 52 52 53 54 54 54 54 54 53 53 53 52 52 52 52 51 50 49 48 47 47 47 46 45 45 44 43 44 44 43 43 43 43 43 43 42 41 38 35 33
23 22 23 28 33 37 40 43 45 45 46 48 51 52 52 54 53 51 50 51 51 51 52 52 52 53 53 53 54 54 54 54 53 53 53 52 52 52 52 51 50 49 48 48 48 47 47 46 45 44 44 43 43 43 43 43 43 42 41 40 36 33 32
22 19 18 21 26 28 29 32 35 36 39 45 48 49 50 51 50 49 51 52 52 51 51 51 52 53 53 53 54 54 54 54 53 53 53 53 53 53 52 51 50 49 49 49 49 48 48 48 46 45 44 43 42 42 42 42 42 41 40 37 33 31 31
16 19 20 20 22 23 23 24 26 26 28 33 38 42 44 45 46 49 51 52 51 50 50 50 51 52 52 53 53 53 54 54 54 53 53 53 54 54 52 51 51 50 50 50 49 49 48 47 46 45 43 43 42 41 41 41 40 38 37 34 31 30 30
5 11 15 15 15 18 20 22 22 22 23 26 29 32 37 41 45 48 50 49 49 48 48 49 50 50 51 52 52 53 54 54 54 54 53 54 54 53 52 51 50 50 50 50 49 48 47 46 46 45 44 43 42 40 40 40 38 36 35 31 29 29 30
8 6 7 8 10 12 15 17 20 21 21 22 22 26 32 38 43 47 48 47 47 47 47 47 47 47 48 49 51 53 54 55 55 54 54 54 54 53 52 51 51 50 50 49 49 48 46 45 45 45 44 43 42 41 40 38 36 35 33 30 28 29 29
7 8 7 4 3 5 7 11 15 19 22 22 22 26 32 38 43 46 47 46 46 46 46 44 43 44 45 48 51 53 54 54 55 55 54 53 52 52 52 51 51 50 50 49 48 47 46 45 45 46 45 43 42 40 38 36 34 33 31 29 29 29 28
6 7 6 6 4 1 1 4 7 13 19 23 26 30 32 36 41 43 44 45 45 46 45 43 42 44 46 48 51 52 52 52 53 54 54 53 53 53 53 52 51 50 49 48 47 47 46 46 45 46 45 43 41 39 36 34 33 31 29 29 30 29 26
6 4 2 2 3 2 1 2 4 7 12 17 22 26 29 32 35 37 40 43 44 44 44 43 44 46 47 48 49 50 50 51 52 52 53 54 54 54 53 51 51 50 49 48 48 47 47 47 47 46 45 43 41 38 36 34 32 30 29 30 29 26 22
5 3 1 1 1 1 2 3 5 7 9 13 17 22 26 29 31 33 37 41 43 43 43 44 45 46 47 47 48 49 50 51 51 51 52 53 54 55 54 52 51 50 49 48 48 49 49 48 48 47 46 44 41 38 36 35 32 30 29 28 25 22 20
4 3 2 1 1 3 6 6 7 8 10 11 13 16 20 24 27 29 32 35 38 39 40 41 42 43 44 45 47 48 49 50 49 50 50 51 53 54 55 54 52 50 50 49 49 49 49 49 49 47 45 43 40 38 36 34 32 29 27 25 22 20 19
3 3 2 2 2 3 6 8 9 11 11 12 14 15 17 18 21 23 26 28 31 33 35 36 39 41 43 44 45 46 47 48 48 49 50 51 53 54 55 55 53 52 51 50 50 49 48 49 49 47 46 43 40 38 36 33 30 28 26 24 22 21 20
6 4 3 2 3 4 4 6 8 9 9 10 12 13 14 14 15 17 19 22 25 27 29 32 35 38 41 43 44 46 47 47 48 50 51 52 53 53 53 53 53 53 52 51 50 50 49 48 46 44 43 42 40 37 35 31 29 29 27 24 22 21 21
11 9 7 6 5 6 6 5 5 6 6 6 6 8 10 12 13 15 16 18 20 23 25 28 31 34 37 39 41 44 46 47 49 51 52 52 52 53 53 53 54 55 54 54 55 54 53 52 48 41 38 38 37 35 33 31 30 29 26 23 22 22 22
12 10 9 8 7 7 8 7 7 7 7 7 6 5 6 9 11 14 16 18 20 21 23 25 27 29 30 32 35 38 42 44 47 48 49 50 50 51 52 54 56 58 57 57 58 59 58 56 50 42 37 35 35 35 34 33 30 27 23 21 20 20 21
11 10 9 8 8 7 7 6 6 7 8 7 7 6 7 8 10 12 14 16 17 19 20 22 24 25 27 28 29 31 35 40 43 46 48 50 52 54 55 55 55 57 59 60 58 56 53 49 42 38 35 32 33 34 32 28 25 23 20 20 20 18 18
11 10 9 8 7 7 6 4 5 6 7 6 6 7 9 10 11 11 12 13 14 15 16 17 19 21 23 24 25 28 31 35 39 43 48 51 53 55 57 57 56 56 57 58 54 47 41 36 35 34 31 28 28 29 25 19 18 20 21 22 21 20 19
13 12 11 10 10 9 7 5 4 4 5 6 7 9 10 12 13 13 13 14 14 14 13 13 15 18 20 22 24 27 30 32 32 36 42 49 54 58 59 59 58 56 52 49 47 43 37 33 32 30 26 23 23 24 22 19 19 21 22 23 23 22 22
Wind_Direction
208 208 209 210 210 210 211 211 211 212 213 214 214 215 215 216 216 216 217 219 220 222 223 224 225 226 227 228 229 230 230 232 234 235 235 234 232 231 229 227 228 228 227 225 225 228 231 232 233 232 230 229 228 226 227 228 229 228 228 227 224 221 225
207 208 209 210 210 211 212 213 213 213 213 214 215 215 215 215 215 216 217 218 220 221 222 224 225 226 228 229 230 230 231 231 233 235 236 236 233 232 231 230 231 231 229 228 228 230 233 235 236 236 233 230 229 226 225 227 229 230 231 229 225 222 226
207 208 210 210 211 212 213 213 214 214 214 215 215 215 215 215 216 217 217 218 220 221 221 223 225 226 228 228 229 230 231 231 232 233 234 236 234 233 232 232 233 233 232 231 230 230 233 236 239 239 237 233 231 228 225 225 229 231 233 233 230 227 228
208 208 210 212 212 212 213 214 215 215 215 216 217 217 217 217 217 218 218 219 220 220 221 223 224 226 227 228 228 229 230 231 232 233 234 235 235 233 232 232 232 233 233 232 231 231 233 237 239 240 239 236 233 231 227 225 227 230 232 234 234 233 231
208 210 211 212 212 212 213 214 216 216 216 217 218 218 219 218 217 217 218 219 220 221 223 224 224 225 227 228 229 230 231 231 232 233 233 234 235 234 233 232 231 232 233 233 232 232 233 236 238 239 239 237 234 232 230 228 228 229 231 233 235 236 235
208 210 212 212 211 211 212 215 216 217 218 218 218 220 220 218 216 216 218 218 219 221 223 223 224 224 225 227 228 230 230 231 232 232 233 233 234 234 233 231 231 232 233 233 232 233 233 235 237 238 238 236 235 233 231 229 229 230 231 233 235 236 237
208 210 213 213 211 211 212 215 217 218 219 220 220 220 219 217 217 217 217 218 219 220 220 221 223 224 225 227 228 229 230 231 231 232 232 233 233 235 233 232 231 232 233 234 234 234 234 235 237 237 237 236 235 234 231 230 231 232 233 234 235 235 237
211 211 213 213 212 212 212 214 217 218 219 219 218 218 217 217 217 216 217 218 219 219 220 221 222 223 225 226 227 229 230 231 231 232 232 233 233 234 233 232 232 232 233 233 234 235 235 236 237 237 237 236 235 235 233 231 231 233 234 236 235 234 235
214 214 215 214 212 213 213 215 217 217 217 218 217 217 217 217 217 217 218 218 218 219 221 223 223 223 224 225 228 230 230 230 231 232 232 232 232 232 232 232 232 232 232 233 234 235 236 237 237 237 237 237 237 237 235 233 232 233 235 237 237 235 235
217 215 217 216 213 213 214 215 216 215 216 216 216 217 217 217 218 217 218 218 218 221 223 223 221 221 223 225 227 229 229 230 231 231 232 231 231 230 230 230 231 231 232 233 233 234 235 236 238 238 238 238 239 239 238 235 232 233 236 238 238 237 236
222 219 219 216 213 213 213 214 215 215 215 216 216 217 217 218 218 218 217 218 219 221 223 221 220 220 222 224 226 227 229 230 230 230 231 231 230 229 229 229 229 231 232 232 233 234 235 236 238 239 239 240 240 240 241 238 235 235 237 239 240 239 238
225 223 223 218 214 214 214 213 215 215 215 216 217 217 217 217 218 218 219 219 220 221 221 220 219 219 222 223 224 226 228 229 230 231 232 231 230 229 229 228 229 230 231 232 233 234 235 237 238 239 240 241 242 242 243 242 239 238 239 240 242 242 240
224 223 224 220 216 216 214 213 214 215 216 217 218 217 217 218 218 218 219 220 220 220 219 219 219 220 221 223 224 225 227 229 231 232 232 232 231 230 230 229 229 230 230 231 233 234 235 236 238 240 242 243 244 244 245 245 243 241 240 241 242 244 244
223 222 222 220 217 217 215 213 214 215 216 218 218 217 218 218 219 219 220 221 219 218 217 218 219 220 221 223 223 225 227 229 230 231 233 233 233 232 231 230 230 231 231 232 233 234 235 237 238 240 243 244 246 246 247 247 246 244 242 242 242 244 245
223 222 221 218 216 216 214 214 216 216 217 218 218 218 218 218 219 219 219 220 218 217 218 218 218 220 221 222 224 227 228 228 229 230 232 232 233 233 232 231 231 232 233 233 233 234 235 237 239 241 243 245 246 247 248 249 249 248 246 245 244 245 246
225 226 223 219 215 214 214 215 217 218 218 219 219 219 218 218 218 218 218 219 218 218 218 217 217 219 221 223 227 229 228 227 228 229 230 231 232 233 233 233 232 232 233 234 235 235 236 237 238 240 242 245 247 248 249 249 250 250 249 248 248 248 249
230 229 227 222 216 213 213 215 217 218 218 219 220 220 219 219 219 219 218 218 218 218 217 216 217 220 223 226 229 228 227 227 227 228 229 231 232 232 233 233 233 233 233 234 235 236 236 237 239 240 242 244 246 248 249 250 251 252 251 251 250 250 251
235 229 226 223 217 213 212 214 217 218 217 219 221 221 220 220 220 219 218 218 219 219 217 216 218 220 224 227 227 225 226 227 227 228 229 230 231 232 233 233 233 233 233 234 235 235 236 237 239 240 242 244 246 248 250 252 253 253 254 253 252 252 254
237 231 227 222 218 215 214 215 219 220 220 221 222 224 224 223 222 222 223 222 221 218 215 216 219 221 224 225 224 225 226 227 227 228 229 230 231 231 232 232 233 234 234 234 234 234 236 237 239 241 242 244 246 248 251 253 254 254 255 254 254 255 256
232 232 230 224 221 221 221 222 223 224 225 225 226 227 227 225 225 227 228 224 219 215 216 218 220 222 223 224 224 226 227 227 228 230 231 231 230 230 231 232 233 234 234 233 233 234 235 237 238 240 242 244 246 249 252 254 255 256 256 256 256 258 259
230 230 229 223 221 224 226 225 224 224 226 229 229 229 227 225 224 225 225 222 217 217 219 220 221 223 224 224 224 225 226 227 229 230 231 230 229 229 230 231 233 233 233 233 233 235 236 237 238 240 241 243 246 248 251 254 254 255 256 257 258 259 261
236 238 232 222 221 225 228 228 228 228 230 231 230 227 225 224 222 221 224 224 221 220 222 222 222 223 223 224 224 225 227 228 230 231 230 229 228 228 230 231 232 233 232 233 234 235 236 237 238 239 241 243 245 247 250 252 253 254 256 257 259 260 260
239 235 225 223 226 225 225 228 230 232 235 234 230 227 225 223 221 221 224 224 221 221 221 221 222 224 225 225 226 227 228 229 230 231 230 228 228 229 230 231 231 232 232 233 234 235 236 236 237 239 240 242 244 246 249 250 252 254 256 257 259 259 259
233 229 226 232 233 223 218 225 229 234 240 239 236 233 228 223 219 220 222 222 221 221 220 221 223 225 226 228 229 230 230 231 231 231 230 229 229 230 231 231 232 232 232 233 233 234 235 236 237 239 241 242 244 246 248 250 252 255 257 258 260 260 260
186 215 225 232 235 230 230 234 234 235 239 239 239 236 228 220 217 219 220 221 220 220 220 223 227 228 229 233 234 234 233 231 231 231 231 231 232 232 232 233 233 233 232 233 234 235 235 236 237 239 240 242 244 246 247 249 253 255 256 258 259 260 260
99 132 185 209 228 240 245 244 238 234 233 234 236 234 226 221 219 220 222 222 221 222 225 230 233 234 236 239 238 235 233 230 229 229 231 233 234 234 234 234 233 232 232 232 234 234 235 236 237 238 239 240 242 244 246 248 251 253 254 257 257 257 257
92 101 107 122 195 245 257 254 244 238 236 235 233 229 225 222 222 224 226 226 225 228 234 238 241 243 244 242 238 234 232 230 229 229 230 233 235 234 234 234 233 232 232 233 233 232 233 234 235 236 237 239 241 242 244 247 249 250 252 254 255 254 253
91 96 90 77 73 81 304 285 259 246 242 237 232 229 227 226 227 229 230 229 231 238 243 244 246 248 246 241 235 232 231 231 230 229 229 231 233 233 233 233 233 233 233 233 232 231 232 233 233 233 234 236 238 240 242 244 245 248 250 251 252 251 249
80 79 55 33 51 77 39 314 273 260 253 245 240 237 235 234 236 237 236 235 238 242 242 241 243 243 240 237 234 233 233 232 232 231 229 229 230 232 232 231 231 231 232 231 231 230 230 229 230 230 232 234 235 236 239 241 242 244 246 248 247 243 238
73 92 142 109 73 357 327 296 267 262 258 252 248 245 243 243 242 241 240 240 241 239 237 238 239 238 237 236 236 236 236 235 235 234 233 230 229 230 231 230 229 229 229 229 229 228 227 227 227 228 229 231 232 233 235 236 238 240 241 240 235 229 227
49 56 63 50 264 267 269 262 257 259 260 258 256 253 251 250 247 244 243 244 244 243 242 242 241 239 239 238 237 237 237 236 236 235 235 233 230 228 228 228 227 226 226 227 227 226 225 225 226 227 228 228 229 230 231 232 231 231 228 223 218 218 222
48 31 3 336 310 277 261 252 249 249 250 252 253 254 255 254 250 247 246 245 245 247 249 249 248 246 243 241 240 240 238 237 237 238 238 236 232 229 228 226 225 225 224 224 224 224 224 225 225 225 226 227 227 227 227 225 222 219 214 209 210 215 218
67 55 28 351 345 336 304 273 262 258 255 253 251 251 254 256 255 252 248 246 244 245 246 248 248 248 246 244 243 242 240 239 239 239 238 235 232 229 226 223 223 223 223 222 221 220 220 220 219 220 222 223 223 223 220 215 211 209 208 208 211 214 216
61 54 47 39 26 12 357 333 308 300 296 287 270 257 253 255 258 257 255 253 251 249 247 247 246 246 246 246 244 242 241 241 240 238 237 234 230 226 223 221 220 220 223 226 224 221 218 216 215 217 222 224 222 217 210 207 208 209 211 212 213 214 212
60 54 48 42 32 22 13 6 357 343 332 326 317 292 263 254 254 254 255 256 257 256 256 254 252 250 248 247 246 244 242 241 240 239 236 231 227 223 222 222 220 219 223 228 229 228 227 223 217 215 219 223 224 218 209 206 208 210 213 214 214 214 210
62 55 48 38 30 22 13 7 0 346 332 327 325 316 297 281 269 260 256 255 256 260 263 264 265 265 261 256 252 249 246 244 242 238 233 230 228 224 220 219 219 218 219 223 225 227 228 227 221 216 213 215 219 219 216 215 214 210 207 208 207 205 202
68 65 60 50 42 33 16 355 332 314 304 301 298 290 283 281 278 273 270 266 265 268 272 277 280 276 268 258 248 242 240 238 235 233 231 229 227 223 217 213 211 212 214 216 217 216 217 221 222 218 214 211 210 209 210 215 216 208 202 201 198 191 188
73 71 68 61 55 47 35 19 350 319 302 292 280 269 266 268 269 270 272 274 274 276 281 288 288 278 266 257 248 240 234 228 223 222 224 224 223 220 216 211 205 201 200 204 206 205 205 211 215 211 204 199 198 197 198 199 201 201 198 193 188 184 184